Home > Weather > Citrus Heights > Past weeks

Flag for U.S.A. Weather for the Past 2 Weeks in Citrus Heights, California, U.S.A.

Now
61 °F

Passing clouds.


Feels Like: 61 °F
Forecast: 38 / 64 °F
Wind: 7 mph from Northwest

Location: Mather Field

Current Time: Feb 6, 2016 at 1:36:18 PM

Latest Report: Feb 6, 2016 at 12:45 PM


Visibility: 10 mi

Pressure: 30.39 "Hg

Humidity: 55%

Dew point: 45 °F

Location of Citrus HeightsLocation

Historic Weather in Citrus Heights — Graph

°F

Citrus Heights Temperature Yesterday

Maximum temperature yesterday: 61 °F (at 2:45 PM)
Minimum temperature yesterday: 36 °F (at 5:50 AM)
Average temperature yesterday: 49 °F

High & Low Weather Summary for the Past Weeks

 TemperatureHumidityPressure
High66 °F (Jan 27, 12:50 PM)100% (Jan 24, 4:48 AM)30.48 "Hg (Jan 24, 4:48 AM)
Low32 °F (Feb 3, 2:55 AM)26% (Feb 1, 12:45 PM)29.70 "Hg (Jan 31, 2:45 PM)
Average49 °F81%30.23 "Hg
* Reported Jan 22 11:45 AM — Feb 6 11:45 AM, Citrus Heights, Weather by CustomWeather, © 2016

Note: Actual official high and low records may vary slightly from our data, if they occured in-between our weather recording intervals... More about our weather records

Advertising

Citrus Heights Weather History for the Previous 24 Hours

 ConditionsComfort  
Time TempWeatherWind HumidityBarometerVisibility
11:45 AM
Sat, Feb 6
59 °FPassing clouds.6 mph51%30.42 "Hg10 mi
10:45 AM54 °FPassing clouds.No wind72%30.44 "Hg10 mi
9:45 AM50 °FPassing clouds.3 mph82%30.45 "Hg10 mi
8:55 AM48 °FSunny.No wind82%30.45 "Hg10 mi
7:55 AM37 °FSunny.No wind100%30.45 "Hg10 mi
5:55 AM37 °FClear.No wind100%30.42 "Hg3 mi
2:55 AM39 °FClear.3 mph100%30.42 "Hg5 mi
10:45 PM
Fri, Feb 5
45 °FPassing clouds.No wind100%30.44 "Hg10 mi
9:45 PM45 °FPassing clouds.No wind100%30.44 "Hg10 mi
8:45 PM46 °FPassing clouds.No wind93%30.42 "Hg10 mi
6:45 PM55 °FPassing clouds.7 mph72%30.40 "Hg10 mi
5:45 PM55 °FPassing clouds.No wind67%30.38 "Hg10 mi
4:45 PM59 °FScattered clouds.3 mph59%30.38 "Hg10 mi
3:45 PM61 °FScattered clouds.6 mph55%30.39 "Hg10 mi
2:45 PM61 °FScattered clouds.No wind55%30.40 "Hg10 mi
1:45 PM59 °FScattered clouds.No wind59%30.41 "Hg10 mi
Weather by CustomWeather, © 2016

See weather overviewHow to use our weather pages